GPS BIIRM-8 (PRN 05)

Last updated on Sun Apr 12 2026 00:03:23 GMT+0000 (Coordinated Universal Time)

1 35752U 09043A 26100.82573664 -.00000069 00000+0 00000+0 0 9992 2 35752 56.1708 30.0981 0052608 81.0231 289.3511 2.00558132122019
UTC large
Height (km)
Speed (km/s)
/
Latitude / Longitude
Inclination (degrees)
Orbital Period (minutes)
Azimuth
Elevation
Range (km)
Doppler Factor

Next 0 passes for location: London (51.5072 / 0.1276)

Sorry there are no passes over London.